Location: Napa Junction
(38.1874°N, 122.2508°W)
Time: 14:59:20
(UTC+00:00)

Cosmos 1954 Rocket - Pass Details

Date: 08 September 2024
Orbit: 748 x 779 km, 74.0° (Epoch: 08 October)

Event Time Altitude Azimuth Distance (km) Brightness Sun altitude
Exits shadow 12:56:03 - 217° (SW) 2,583 6.3 -10.3°
Reaches altitude 10° 12:56:54 10° 219° (SW) 2,263 6.0 -10.1°
Maximum altitude 13:01:49 46° 293° (WNW) 1,010 4.3 -9.2°
Drops below altitude 10° 13:06:48 10° 6° (N) 2,292 6.7 -8.3°
Sets 13:09:17 0° 13° (NNE) 3,226 7.6 -7.8°
